SL-14 DEB, 45326

Orbit data source: Space-Track

SL-14 DEB, 45326 is space debris in LEO originally from a launch on Thu, 15 Aug 1991 UTC launched from the Plesetsk Missile And Space Complex (PKMTR). Debris objects in space refer to the collection of defunct objects orbiting the Earth. Examples of debris include non-operational satellites, rocket bodies, and fragments generated from explosions, collisions, or faulty payload assembly.

Loading next visibility...
Identifier
45326, 1991-056BQ
Orbit
LEO
Country
Flag of CISCIS
Related business
Manufacturer
Unknown
Mission
Spacecraft
Bus & Motor
Unknown
Mass
Unknown
Launch date (UTC)
1991-08-15 (35 years ago)
Launch vehicle
Unknown
Launch site
Plesetsk Missile And Space Complex (PKMTR)
Object type
Payload
Rocket body
Debris
Shape & HBR
Unknown shape, 0.1 m
Radar Cross Section
Medium (>0.1 m² and <1 m²)

Expand to show TLE details & history
Last TLE update: 1 day ago

TLE from 1 day ago
0 SL-14 DEB
1 45326U 91056BQ  26237.56229284  .00000524  00000-0  11728-2 0  9991
2 45326  82.5865  79.6216 0034949 211.2063 148.6990 13.25214771315381
Epoch: 2026-08-25T13:29Z
TLE epoch observation values (Epoch: 2026-08-25T13:29:42.101Z)
Latitude
0.00002°
Longitude
-96.63168°
Altitude
1,190.241 km
Speed
7.248 km/s
True Right ascension
05h 18m 29s
True Declination
0° 00' 00"
Sunlit
Object was in daylight at epoch
Visualization orbit readout
Latitude
Unknown
Longitude
Unknown
Altitude
Unknown
Speed
Unknown
Apparent Right ascension
Unknown
Apparent Declination
Unknown
Sunlit
N/A
Visualization observer readout
Local Sidereal Time
08:08:06
Azimuth
Unknown
Elevation
Unknown
Doppler factor
Unknown
Orbital elements
Apogee altitude
1,188.451 km
Perigee altitude
1,135.746 km
Semi-major axis
7,540.236 km
Eccentricity
0.00349
Inclination
82.5865°
RAAN
79.6216°
Arg. of periapsis
211.2063°
True anomaly
148.90629°
Mean anomaly
148.699°
Eccentric anomaly
148.80272°
Mean motion
3.31486 °/min
Orbital period
108.6 mins
BSTAR
0.0011728
Loading maneuver chart data...
Computing Atmospheric mass density...
Loading historical data...
Loading historical data...
Loading historical data...
Loading historical data...
Loading historical data...
Loading historical data...
Loading historical data...

Documentation

Showing up to 5 results
|